Regional Weather Roundup
Issued by NWS

Home | Current Version | Previous Version | Graphics & Text | Print | Product List | Glossary On
Versions: 1 2 3 4 5 6 7 8 9 10 11 12 13 14 15 16 17 18 19 20 21 22 23 24 25 26 27 28 29 30 31 32 33 34 35 36 37 38 39 40 41 42 43 44 45 46 47 48 49 50
000
ASUS43 KTOP 262259
RWRKS

WEATHER ROUNDUP FOR KANSAS
NATIONAL WEATHER SERVICE GOODLAND KS
600 PM CDT WED APR 26 2017

NOTE:  "FAIR" INDICATES FEW OR NO CLOUDS BELOW 12,000 FEET WITH NO
SIGNIFICANT WEATHER AND/OR OBSTRUCTIONS TO VISIBILITY.

KSZ001>006-013>018-027>032-041>047-270000-
NORTHWEST KANSAS

CITY           SKY/WX    TMP DP  RH WIND       PRES   REMARKS
GOODLAND       SUNNY     58  28  32 NW13      29.69F
HAYS           SUNNY     55  34  45 N13       29.70F
HILL CITY      SUNNY     57  31  37 N8        29.70F
RUSSELL        SUNNY     53  33  46 NW16G23   29.68F
$$

KSZ061>065-074>080-084>089-270000-
SOUTHWEST KANSAS

CITY           SKY/WX    TMP DP  RH WIND       PRES   REMARKS
DODGE CITY     MOSUNNY   58  32  37 N13G24    29.70F
GARDEN CITY    SUNNY     59  29  31 N20G26    29.71F
GREAT BEND     MOSUNNY   55  37  50 NW16      29.69F
LIBERAL        SUNNY     61  33  35 N12G20    29.72F
$$

KSZ066>073-081>083-090>101-270000-
SOUTHEAST KANSAS

CITY           SKY/WX    TMP DP  RH WIND       PRES   REMARKS
CHANUTE        CLOUDY    49  43  80 NW5       29.62S
COFFEYVILLE    CLOUDY    49  42  77 N6        29.63F
HUTCHINSON     MOSUNNY   55  35  47 N16G23    29.67S
MEDICINE LODGE   N/A     59  35  40 NW12      29.68S
NEWTON         CLOUDY    51  37  58 NW18      29.67R
PARSONS        CLOUDY    48  42  80 NW3       29.64S
WICHITA INTL   PTSUNNY   55  37  50 N16       29.67R
WICHITA JABRA  CLOUDY    51  37  58 NW18      29.66R
WINFIELD       CLOUDY    54  40  59 N10       29.67F
$$

KSZ007>012-019>026-033>040-048>060-102>105-270000-
NORTHEAST KANSAS

CITY           SKY/WX    TMP DP  RH WIND       PRES   REMARKS
CONCORDIA      CLOUDY    50  37  61 NW16      29.67F
EMPORIA        CLOUDY    51  38  60 N12       29.62F
LAWRENCE       CLOUDY    50  39  66 NW15      29.61S
MANHATTAN      CLOUDY    51  36  56 NW8       29.65S
OLATHE IND     CLOUDY    49  38  65 NW18      29.59F
OLATHE EXE     CLOUDY    48  40  73 NW8       29.58F
SALINA         CLOUDY    53  37  54 N12       29.68S
TOPEKA BILLARD CLOUDY    50  38  63 NW14      29.62F
TOPEKA FORBES  CLOUDY    51  38  60 NW17G23   29.61F
$$




USA.gov is the U.S. government's official web portal to all federal, state and local government web resources and services.